カタログに戻る

ANIK C1 R/B

PAM-D

運用中HEO
NORAD 15644·ROCKET BODY·🇺🇸 United States

打ち上げ Apr 12, 1985 から Cape Canaveral Space Force Station

Loading…

次のパス (今後24時間)

TLE

最新Source: Space-Track

元期: Sep 12, 2026, 17:27 UTC

1 15644U 85028D   26255.72735665  .00001262  00000-0  12163-2 0  9990
2 15644  23.0792 101.8649 6826031  48.2117 352.8216  2.81831039389230

AllMySatでANIK C1 R/Bをリアルタイム追跡

Download on the App Store